Location: Unspecified
(49.8670°N, 0.0000°E)
Time: 23:23:11
(UTC+00:00)

ISS - Pass Details

Date: 27 May 2019
Orbit: 408 x 418 km, 51.6° (Epoch: 16 June)

Event Time Altitude Azimuth Distance (km) Brightness Sun altitude
Rises 21:18:51 0° 283° (WNW) 2,356 0.9 -10.6°
Reaches altitude 10° 21:20:57 10° 286° (WNW) 1,495 -0.1 -10.8°
Maximum altitude 21:24:18 74° 11° (N) 440 -3.6 -11.1°
Drops below altitude 10° 21:27:40 10° 97° (E) 1,498 -1.4 -11.4°
Enters shadow 21:27:43 10° 98° (E) 1,519 -1.3 -11.5°
